Vorticity
12 11 11 12 14 15 15 16 17 17 18 17 16 14 12 11 9 7 4 0 -1 1 4 6 10 14 17 19 18 17 17 16 15 14 13 12 12 11 10 10 10 11 11 10 7 5 4 3 3 2 2 5 16 25 27 20 10 6 4 1 -4 -3 3 12 16 19 20 20 18
14 13 11 11 12 13 14 15 15 16 16 16 15 14 12 11 9 8 5 2 -1 -1 0 4 9 15 19 20 18 17 16 15 15 14 13 13 12 11 11 10 10 10 10 10 8 6 5 4 3 1 -1 0 10 18 22 18 9 1 -6 -15 -21 -20 -13 -2 6 11 15 19 21
15 14 14 12 12 12 13 14 14 14 14 14 14 13 12 11 10 8 7 5 2 -2 -4 -4 3 11 19 22 20 17 15 15 14 14 13 13 12 12 11 11 10 10 10 9 8 7 5 4 3 0 -2 -4 2 9 14 15 10 3 -6 -18 -24 -23 -15 -3 4 9 11 12 15
15 15 15 15 14 13 13 13 13 13 13 13 13 12 12 11 10 9 8 8 6 1 -5 -9 -7 2 13 22 22 19 16 14 13 13 13 13 12 12 12 11 11 10 10 9 8 7 6 5 4 2 -2 -5 -4 1 7 10 9 5 -0 -8 -15 -15 -10 -1 7 10 11 11 11
17 15 15 16 16 15 14 13 13 13 13 13 12 12 11 11 10 10 9 9 8 5 -0 -8 -11 -7 3 16 22 23 20 16 14 13 12 12 12 12 12 12 12 11 11 10 9 8 7 6 5 4 1 -3 -7 -5 -0 5 5 3 1 -2 -6 -8 -9 -8 -6 -5 -3 -1 -0
22 18 15 14 16 16 16 15 14 14 13 12 12 11 10 10 9 9 9 9 10 8 5 -1 -7 -9 -5 4 16 22 23 21 18 15 13 13 13 13 13 13 13 12 12 11 10 9 8 8 8 7 5 2 -4 -8 -8 -3 0 1 1 0 -2 -5 -9 -14 -18 -23 -26 -27 -23
28 24 19 15 15 15 17 17 17 16 14 13 12 11 10 9 8 8 8 9 10 9 8 5 0 -4 -6 -4 6 15 21 24 21 18 15 14 14 14 14 14 14 14 13 13 12 11 10 9 10 10 9 7 3 -3 -8 -11 -7 -5 -4 -4 -5 -7 -10 -14 -17 -21 -27 -31 -31
28 29 27 21 16 15 15 17 18 18 17 15 14 12 11 9 8 7 7 7 8 8 8 7 4 1 -1 -3 -0 6 14 20 21 19 17 14 14 15 15 15 15 14 14 14 13 13 12 12 11 12 13 12 10 8 3 -4 -8 -10 -11 -10 -10 -11 -12 -11 -11 -12 -12 -11 -11
21 27 30 29 23 18 15 14 16 18 18 18 16 15 13 11 9 7 6 6 6 7 7 7 6 4 2 0 -1 0 4 11 16 17 17 15 14 15 16 16 16 15 15 14 14 13 13 13 14 14 14 15 15 15 15 12 5 -1 -7 -9 -8 -8 -8 -7 -7 -6 -5 -2 2
13 20 27 32 30 25 19 14 14 15 17 19 19 18 16 14 11 9 7 6 6 6 6 6 6 5 3 2 1 -0 -1 1 8 12 15 14 14 14 15 16 16 16 15 14 14 13 13 13 14 14 15 15 15 16 17 20 20 16 9 1 -1 -1 -1 -2 -3 -2 -0 3 7
6 12 19 27 32 31 27 19 15 14 14 17 19 19 19 17 15 12 10 8 6 5 5 4 5 5 4 2 2 2 1 -1 1 5 10 13 13 13 14 15 16 16 15 15 14 14 13 12 12 13 13 14 13 14 15 17 21 23 21 14 9 7 6 5 3 4 7 10 12
2 6 11 18 27 32 33 28 20 15 13 13 16 18 20 20 19 16 14 11 8 6 4 3 3 4 4 2 1 2 3 3 1 1 4 8 10 11 12 14 15 15 15 15 14 13 13 12 11 11 11 12 12 12 12 13 17 21 23 21 17 15 13 13 12 12 13 14 14
1 2 5 10 19 27 33 34 28 21 15 12 13 15 18 20 21 20 18 15 12 9 6 3 2 2 3 3 1 1 3 6 5 3 2 3 5 7 9 11 12 14 14 15 14 13 12 11 10 10 10 10 10 11 11 12 14 18 21 22 21 20 19 17 16 14 14 14 14
1 1 3 6 12 19 27 34 33 28 22 15 12 12 14 17 20 21 21 20 17 14 10 6 4 2 2 2 2 1 2 4 7 7 5 2 2 3 5 7 9 11 12 13 14 13 12 11 10 10 9 9 9 9 10 10 11 13 15 18 20 21 20 19 17 15 14 14 15
1 1 1 3 7 13 21 29 33 33 28 21 15 12 11 13 17 20 22 23 22 19 16 12 8 5 3 3 3 2 2 2 5 7 8 6 3 1 1 2 4 6 9 11 12 12 12 12 11 11 11 10 10 9 8 8 8 8 9 11 14 16 17 17 17 16 16 15 16
2 1 1 1 4 9 16 24 30 33 32 27 20 15 11 10 13 16 19 22 23 23 22 19 15 11 8 6 5 4 3 2 2 5 7 8 6 3 1 0 1 2 4 6 8 10 11 11 11 11 11 11 10 10 8 7 6 5 5 6 8 10 12 13 14 14 15 15 15
3 2 1 1 3 7 13 20 26 30 32 30 25 19 14 10 10 12 15 19 22 24 25 24 22 18 15 11 8 6 4 2 2 2 4 6 8 7 4 2 0 0 1 2 4 6 7 8 9 9 10 10 10 9 8 7 6 5 4 3 4 5 8 10 11 12 12 13 13
4 3 1 1 1 5 10 17 23 28 31 31 28 23 18 12 10 10 11 14 18 21 24 26 25 23 21 17 13 10 7 4 2 2 2 3 6 7 7 6 3 1 0 0 1 2 3 5 6 7 7 7 8 8 8 8 7 6 5 4 4 4 5 7 8 9 9 10 10
5 4 2 1 1 3 8 14 21 26 30 31 29 26 21 16 12 9 9 11 14 17 21 23 25 25 24 22 18 15 11 8 5 3 2 2 3 5 7 8 7 5 3 2 1 1 1 2 4 5 5 6 6 7 7 8 8 7 7 6 6 5 5 5 6 6 7 7 7
6 5 3 2 1 3 6 12 19 25 29 31 29 27 23 19 14 11 9 9 11 14 17 20 22 24 25 25 23 20 17 13 10 7 5 3 3 3 5 7 8 8 7 5 3 2 2 2 3 3 4 5 5 6 6 7 8 8 8 8 8 7 7 6 6 6 6 6 5
7 6 4 3 2 3 5 10 17 24 28 31 29 27 24 20 16 13 10 9 10 11 13 16 19 21 23 24 25 24 22 19 16 12 9 7 6 5 4 5 6 8 9 8 7 5 4 3 2 3 3 4 5 5 5 6 6 7 7 8 8 7 7 7 6 6 5 5 5
7 6 5 4 3 3 5 9 16 22 27 30 29 27 24 21 18 15 12 10 10 10 12 14 16 19 21 23 24 25 25 24 21 19 15 13 10 8 6 6 6 6 7 9 8 7 6 4 3 3 3 3 4 4 4 5 5 5 6 6 6 6 6 6 6 6 6 5 5
7 7 6 5 3 3 5 9 15 21 26 29 29 27 24 21 18 16 14 12 11 10 11 12 14 16 18 21 23 24 25 25 25 23 22 19 16 13 11 9 7 7 6 7 8 8 7 6 5 4 4 3 3 3 4 4 4 5 5 5 5 5 5 5 5 6 6 6 5
8 7 6 5 4 4 5 8 14 20 25 28 28 26 24 21 18 16 15 13 12 11 11 11 12 14 16 18 20 22 23 25 25 26 25 24 22 19 16 13 12 10 8 7 7 7 7 7 6 5 5 4 4 4 4 4 5 5 5 5 4 4 4 4 5 5 5 5 5
8 7 7 6 5 4 5 8 14 20 25 27 27 25 23 20 18 16 15 14 13 12 11 11 12 12 13 15 16 18 20 22 23 25 26 26 25 24 22 19 17 14 12 10 8 7 7 7 7 6 6 5 5 4 5 5 5 6 6 5 5 4 4 4 4 5 5 5 5
8 7 7 6 5 5 6 9 14 20 24 26 26 24 21 19 17 16 15 14 13 13 12 12 11 12 12 13 13 15 16 18 19 21 22 24 25 26 25 24 22 20 17 15 13 11 9 8 8 8 7 7 6 6 6 6 6 6 6 6 6 5 5 4 4 5 5 5 5
7 7 7 6 5 5 6 9 14 19 24 26 25 23 20 18 16 16 15 15 14 13 12 12 12 12 12 12 12 13 13 14 15 16 17 19 20 22 24 25 25 24 23 21 19 17 15 13 10 9 9 9 8 8 7 6 6 6 6 6 6 6 6 6 5 5 5 5 5
7 7 7 6 6 6 6 8 14 19 23 25 24 22 19 17 16 15 15 15 14 14 13 12 12 11 11 11 12 12 12 12 12 12 13 14 15 17 19 21 22 24 24 24 24 23 21 19 17 14 12 11 11 10 9 7 6 6 6 6 6 7 7 6 6 5 5 5 5
7 7 6 6 6 6 7 9 14 19 23 24 23 21 18 16 15 15 15 15 15 14 13 13 12 11 11 11 11 11 11 11 11 11 11 11 12 12 13 15 17 19 20 22 23 24 24 24 23 21 19 17 15 13 11 10 8 7 7 6 6 7 6 6 6 6 5 5 5
7 7 6 6 6 6 7 10 14 19 22 23 22 20 18 16 15 15 15 15 15 14 13 12 12 11 10 10 10 10 11 11 11 11 11 11 11 11 11 12 13 14 15 16 18 20 21 23 24 24 24 23 21 19 16 14 12 10 9 8 7 7 6 6 6 6 6 6 6
7 7 6 6 6 6 8 10 14 18 21 22 21 19 17 15 15 14 15 15 14 14 13 12 12 11 11 10 10 10 10 10 11 11 11 11 11 11 11 11 11 11 12 12 13 15 16 18 20 21 22 24 24 24 23 21 18 16 14 12 10 9 8 7 7 7 7 8 8
7 7 6 6 6 6 8 10 14 18 20 22 21 19 17 15 14 14 14 14 14 14 13 13 12 12 11 11 11 11 11 11 11 11 11 11 11 11 11 11 11 11 11 11 11 12 12 13 15 16 18 19 21 23 24 24 24 22 20 17 15 13 12 11 10 9 9 10 10
7 7 6 6 6 7 8 10 14 17 20 21 20 18 17 15 14 14 14 14 14 14 13 13 12 12 12 12 12 12 11 11 11 11 11 11 11 11 12 12 11 11 11 11 11 11 11 11 12 12 13 15 16 18 20 21 23 24 24 23 21 19 17 16 14 13 12 12 12
7 7 6 6 6 7 8 10 13 17 20 21 20 18 17 15 14 14 14 14 14 14 13 13 13 12 12 12 12 12 12 12 12 12 12 12 12 12 12 12 12 12 12 12 11 11 11 11 11 11 11 12 12 14 15 17 18 20 22 23 23 23 22 21 19 18 16 15 15
7 6 6 6 6 7 8 10 13 17 20 21 20 18 17 15 15 14 14 14 14 14 14 14 13 13 12 12 12 12 12 12 13 13 13 13 13 13 13 13 13 13 13 13 13 12 12 12 11 11 11 11 11 11 12 13 15 16 18 20 21 23 23 24 23 22 20 19 18
7 6 6 6 6 7 8 9 13 16 19 21 20 18 17 15 15 15 15 14 15 15 15 14 14 13 13 13 13 13 13 13 14 14 15 15 15 16 16 16 16 16 16 15 15 15 14 14 13 13 12 12 12 11 12 12 13 14 15 16 18 19 21 23 23 24 23 23 21
7 6 6 6 6 7 8 9 12 16 19 21 20 18 17 15 15 15 15 15 15 15 15 15 14 14 14 13 13 13 14 14 15 16 16 17 18 19 19 20 20 20 20 19 19 19 18 17 17 16 15 14 14 13 13 13 13 13 13 14 15 16 18 19 21 23 24 25 24
7 7 6 6 6 6 7 9 12 15 18 20 20 18 17 15 14 14 15 15 15 15 15 15 15 14 14 14 13 14 14 15 16 16 18 19 20 21 22 22 23 23 23 23 23 22 22 21 20 20 19 18 17 16 16 15 15 14 14 14 14 15 15 16 18 20 22 24 24
7 7 6 6 6 6 7 9 12 15 17 19 19 18 17 15 14 14 14 15 15 15 15 15 14 14 14 13 13 13 14 14 15 16 17 19 20 22 23 23 24 25 25 25 25 25 25 24 24 23 23 22 21 20 19 18 17 17 16 15 15 14 14 14 15 17 18 21 22
7 7 6 6 6 6 7 9 11 14 17 19 19 18 17 15 14 14 14 14 15 15 15 14 14 14 13 13 13 13 13 13 14 15 16 17 19 20 21 23 23 24 24 25 25 25 25 25 25 25 24 24 23 22 21 21 20 19 18 18 17 16 15 15 15 15 17 18 20
7 7 6 6 6 6 7 8 11 13 16 19 19 18 17 15 14 13 13 14 14 14 14 14 13 13 13 12 12 12 12 12 13 13 14 15 16 17 18 20 20 21 22 22 23 23 23 24 24 24 24 24 23 23 22 22 21 21 20 20 19 18 17 16 16 16 16 17 20
Height
5594 5594 5595 5595 5596 5597 5598 5599 5600 5602 5604 5605 5607 5609 5611 5613 5615 5617 5619 5620 5622 5624 5626 5628 5629 5630 5632 5633 5635 5637 5639 5642 5644 5647 5649 5652 5654 5657 5659 5662 5664 5666 5669 5671 5673 5675 5678 5680 5683 5685 5687 5689 5691 5694 5696 5697 5697 5698 5698 5698 5699 5700 5702 5702 5703 5705 5707 5709 5711
5592 5593 5593 5594 5594 5595 5596 5597 5598 5600 5601 5603 5605 5606 5609 5610 5612 5614 5616 5617 5619 5621 5623 5624 5626 5627 5628 5630 5632 5634 5636 5638 5641 5644 5646 5648 5651 5653 5655 5658 5660 5662 5664 5667 5669 5671 5674 5676 5679 5681 5683 5685 5687 5690 5692 5694 5694 5695 5695 5695 5696 5696 5698 5699 5700 5701 5703 5705 5707
5590 5591 5591 5592 5592 5593 5594 5595 5596 5598 5599 5601 5602 5604 5606 5608 5609 5611 5613 5614 5616 5617 5619 5621 5623 5624 5625 5627 5628 5630 5633 5635 5638 5640 5643 5645 5647 5649 5652 5654 5656 5658 5660 5663 5665 5667 5669 5672 5675 5677 5679 5681 5683 5685 5687 5688 5690 5691 5692 5692 5693 5694 5695 5696 5697 5697 5698 5700 5702
5588 5589 5589 5590 5590 5591 5592 5593 5594 5595 5597 5598 5600 5602 5603 5605 5607 5609 5610 5612 5613 5615 5616 5618 5619 5621 5622 5624 5625 5627 5629 5632 5634 5637 5639 5642 5644 5645 5648 5650 5652 5654 5657 5659 5661 5663 5665 5668 5670 5673 5675 5677 5679 5680 5681 5683 5685 5686 5687 5688 5689 5690 5691 5692 5694 5695 5696 5697 5698
5586 5586 5587 5588 5588 5589 5590 5591 5592 5593 5594 5596 5597 5599 5601 5602 5604 5606 5608 5609 5611 5612 5613 5614 5616 5618 5619 5621 5623 5624 5626 5629 5631 5634 5636 5638 5640 5642 5644 5646 5648 5650 5652 5654 5657 5659 5661 5664 5666 5668 5670 5673 5674 5675 5676 5678 5679 5681 5681 5682 5683 5684 5686 5688 5689 5692 5694 5695 5696
5584 5584 5585 5585 5586 5587 5588 5589 5589 5590 5592 5593 5595 5596 5598 5600 5602 5604 5605 5607 5608 5609 5610 5611 5613 5614 5616 5618 5620 5621 5623 5625 5628 5630 5633 5634 5636 5638 5640 5642 5644 5646 5649 5651 5653 5655 5657 5659 5661 5664 5666 5668 5670 5671 5672 5674 5675 5676 5677 5678 5679 5679 5681 5683 5684 5687 5689 5691 5692
5581 5582 5582 5583 5584 5584 5585 5586 5587 5588 5589 5590 5592 5594 5595 5597 5599 5601 5602 5603 5605 5606 5608 5609 5610 5611 5613 5615 5617 5619 5620 5622 5624 5627 5629 5631 5633 5635 5637 5639 5641 5643 5645 5647 5649 5651 5653 5655 5657 5659 5661 5663 5665 5667 5668 5669 5671 5672 5673 5674 5675 5675 5677 5678 5679 5681 5683 5684 5686
5579 5579 5580 5580 5581 5582 5583 5584 5584 5585 5586 5588 5589 5590 5592 5594 5596 5598 5599 5601 5602 5604 5605 5606 5607 5608 5609 5611 5614 5615 5617 5619 5621 5623 5625 5628 5629 5631 5633 5635 5637 5639 5641 5643 5645 5647 5649 5650 5652 5654 5656 5658 5660 5662 5663 5665 5666 5668 5669 5670 5671 5672 5673 5674 5675 5676 5678 5679 5680
5577 5578 5578 5578 5579 5579 5580 5581 5582 5583 5584 5585 5586 5587 5589 5591 5593 5594 5596 5598 5599 5600 5602 5603 5604 5605 5607 5608 5610 5613 5614 5616 5618 5620 5622 5624 5626 5628 5630 5632 5634 5636 5638 5639 5641 5643 5644 5646 5648 5650 5652 5654 5655 5657 5659 5660 5662 5663 5664 5665 5667 5668 5669 5670 5671 5672 5674 5674 5676
5575 5575 5576 5576 5576 5577 5578 5578 5579 5580 5581 5582 5583 5584 5586 5588 5589 5591 5593 5594 5596 5597 5599 5600 5602 5603 5604 5605 5607 5609 5611 5613 5615 5617 5619 5620 5622 5624 5626 5628 5630 5632 5634 5636 5637 5639 5641 5643 5644 5646 5648 5649 5651 5653 5654 5656 5657 5659 5660 5661 5663 5664 5665 5666 5667 5669 5669 5671 5672
5574 5574 5574 5574 5574 5574 5575 5575 5576 5577 5578 5579 5580 5581 5583 5584 5586 5588 5589 5591 5593 5594 5596 5597 5599 5600 5602 5603 5604 5606 5608 5610 5612 5614 5615 5617 5619 5621 5623 5625 5627 5629 5630 5632 5634 5635 5637 5639 5640 5642 5644 5645 5647 5648 5650 5651 5653 5654 5656 5657 5659 5660 5661 5663 5664 5665 5666 5667 5668
5571 5571 5571 5571 5572 5572 5572 5573 5573 5574 5575 5576 5577 5578 5579 5581 5583 5584 5586 5588 5589 5591 5592 5594 5596 5597 5599 5600 5601 5603 5604 5607 5609 5610 5612 5614 5616 5618 5619 5621 5623 5625 5627 5629 5630 5632 5634 5635 5637 5639 5640 5641 5643 5644 5646 5647 5649 5650 5652 5653 5654 5656 5657 5658 5659 5661 5662 5663 5664
5569 5569 5569 5569 5569 5569 5569 5570 5570 5571 5572 5573 5574 5575 5576 5578 5579 5581 5582 5584 5585 5587 5589 5591 5593 5594 5596 5597 5599 5600 5602 5603 5605 5607 5609 5610 5612 5614 5616 5618 5619 5621 5623 5625 5626 5628 5630 5632 5633 5635 5636 5638 5639 5640 5642 5643 5644 5646 5648 5649 5650 5652 5653 5654 5655 5657 5658 5659 5661
5566 5567 5567 5567 5567 5567 5567 5567 5568 5568 5569 5570 5571 5572 5573 5574 5576 5577 5579 5580 5582 5584 5586 5588 5589 5591 5592 5594 5596 5598 5599 5600 5601 5603 5605 5607 5609 5611 5612 5614 5616 5617 5619 5621 5623 5625 5626 5628 5630 5631 5633 5634 5635 5637 5638 5639 5641 5642 5644 5645 5647 5648 5649 5650 5651 5653 5654 5656 5657
5564 5564 5564 5564 5564 5564 5564 5564 5565 5565 5566 5566 5568 5569 5570 5571 5572 5574 5575 5577 5579 5580 5582 5584 5586 5588 5589 5591 5593 5594 5595 5597 5598 5599 5601 5603 5605 5607 5609 5610 5612 5614 5615 5617 5619 5621 5623 5624 5626 5628 5629 5630 5632 5633 5634 5636 5637 5639 5640 5642 5643 5644 5645 5646 5648 5649 5650 5652 5653
5561 5562 5562 5562 5562 5562 5562 5562 5562 5562 5563 5563 5564 5565 5567 5568 5569 5570 5572 5573 5575 5577 5579 5581 5582 5584 5586 5587 5589 5590 5592 5593 5594 5596 5598 5599 5601 5603 5605 5607 5609 5610 5612 5614 5615 5617 5619 5620 5622 5624 5625 5627 5628 5630 5631 5633 5634 5635 5637 5638 5639 5641 5642 5643 5644 5645 5646 5648 5649
5559 5559 5559 5559 5559 5559 5559 5559 5559 5559 5559 5560 5561 5562 5563 5564 5566 5567 5569 5570 5572 5574 5575 5577 5578 5580 5581 5583 5584 5586 5588 5589 5591 5592 5594 5595 5598 5599 5601 5603 5605 5606 5608 5610 5612 5614 5615 5617 5618 5620 5622 5623 5625 5626 5628 5629 5631 5632 5634 5635 5636 5637 5638 5639 5640 5642 5643 5644 5645
5556 5557 5557 5557 5557 5557 5557 5557 5556 5556 5556 5557 5558 5559 5560 5561 5563 5564 5565 5567 5568 5570 5571 5573 5574 5575 5577 5579 5580 5582 5584 5585 5587 5589 5590 5592 5594 5595 5597 5599 5601 5603 5604 5606 5608 5610 5611 5613 5614 5616 5618 5619 5621 5623 5624 5626 5627 5629 5630 5631 5633 5634 5634 5636 5637 5638 5639 5640 5641
5554 5554 5554 5554 5554 5554 5554 5554 5554 5554 5554 5554 5554 5555 5556 5558 5559 5561 5562 5564 5565 5566 5567 5569 5570 5571 5573 5574 5576 5578 5580 5582 5583 5585 5587 5588 5590 5591 5593 5595 5597 5599 5601 5603 5604 5606 5608 5609 5611 5613 5614 5616 5617 5619 5621 5622 5624 5625 5626 5627 5629 5630 5631 5632 5633 5634 5635 5636 5637
5551 5551 5552 5552 5552 5552 5552 5551 5551 5551 5551 5551 5551 5552 5553 5554 5556 5558 5559 5560 5562 5563 5564 5565 5566 5567 5569 5570 5572 5574 5576 5578 5579 5581 5583 5584 5586 5588 5589 5591 5593 5595 5597 5599 5600 5602 5604 5605 5607 5609 5610 5612 5614 5615 5617 5618 5620 5621 5622 5624 5624 5626 5627 5628 5629 5630 5632 5633 5634
5548 5549 5549 5549 5549 5549 5549 5549 5549 5548 5548 5548 5549 5549 5550 5551 5553 5554 5555 5557 5558 5559 5560 5561 5563 5564 5565 5566 5568 5570 5571 5573 5575 5577 5579 5580 5582 5583 5585 5586 5589 5591 5593 5594 5596 5598 5600 5601 5603 5604 5606 5608 5609 5611 5613 5614 5616 5617 5618 5619 5620 5621 5623 5624 5625 5626 5628 5629 5630
5545 5546 5546 5546 5546 5546 5546 5546 5546 5545 5545 5545 5546 5546 5547 5548 5549 5551 5552 5554 5555 5556 5557 5558 5559 5560 5561 5563 5564 5566 5567 5569 5571 5573 5574 5576 5578 5579 5580 5582 5584 5586 5588 5590 5592 5594 5595 5597 5599 5600 5602 5604 5606 5607 5609 5610 5612 5613 5614 5615 5616 5617 5618 5619 5621 5622 5623 5624 5626
5543 5543 5543 5544 5544 5544 5544 5544 5543 5543 5543 5543 5543 5544 5544 5545 5546 5548 5549 5551 5552 5553 5554 5555 5556 5557 5558 5559 5561 5562 5564 5565 5567 5568 5570 5572 5573 5575 5576 5578 5580 5582 5584 5585 5587 5589 5591 5593 5594 5596 5598 5600 5601 5603 5604 5606 5607 5609 5610 5611 5612 5613 5614 5615 5616 5617 5619 5620 5621
5540 5540 5540 5541 5541 5541 5541 5541 5541 5540 5540 5540 5540 5541 5542 5543 5544 5545 5546 5548 5549 5550 5551 5552 5553 5554 5555 5556 5557 5559 5560 5562 5563 5564 5566 5568 5569 5570 5572 5574 5576 5577 5579 5580 5582 5584 5586 5588 5590 5592 5594 5596 5597 5599 5600 5602 5603 5604 5606 5607 5608 5608 5609 5610 5611 5613 5614 5615 5617
5537 5538 5538 5538 5538 5539 5539 5538 5538 5538 5538 5538 5538 5539 5539 5540 5541 5542 5543 5544 5546 5547 5548 5549 5550 5551 5552 5553 5554 5555 5557 5558 5559 5561 5562 5564 5565 5566 5568 5570 5572 5573 5574 5576 5578 5580 5582 5584 5586 5587 5589 5591 5593 5595 5596 5598 5599 5600 5601 5602 5603 5604 5605 5606 5607 5608 5609 5610 5612
5535 5535 5535 5536 5536 5536 5536 5536 5536 5535 5535 5535 5536 5536 5537 5538 5539 5539 5541 5542 5543 5544 5545 5546 5547 5548 5549 5550 5551 5553 5554 5555 5556 5557 5559 5560 5561 5563 5564 5566 5568 5569 5570 5572 5574 5575 5577 5579 5581 5583 5585 5587 5589 5590 5592 5594 5595 5596 5597 5598 5599 5600 5601 5602 5603 5604 5604 5605 5607
5532 5533 5533 5533 5533 5534 5534 5533 5533 5533 5533 5533 5533 5534 5534 5535 5536 5537 5538 5539 5540 5541 5542 5543 5544 5545 5546 5547 5549 5549 5551 5552 5553 5554 5555 5557 5558 5559 5560 5562 5563 5565 5567 5568 5570 5571 5573 5574 5576 5578 5580 5582 5584 5586 5587 5589 5590 5591 5592 5594 5595 5596 5597 5598 5598 5599 5600 5601 5602
5530 5530 5530 5531 5531 5531 5531 5531 5531 5530 5530 5531 5531 5531 5532 5533 5534 5534 5535 5536 5537 5539 5539 5540 5541 5542 5544 5544 5546 5547 5548 5549 5550 5551 5552 5553 5554 5556 5557 5558 5560 5561 5563 5564 5566 5567 5569 5570 5572 5574 5575 5577 5579 5581 5582 5584 5585 5586 5588 5589 5590 5591 5592 5593 5594 5594 5595 5596 5597
5527 5528 5528 5528 5529 5529 5529 5529 5528 5528 5528 5528 5529 5529 5530 5531 5531 5532 5533 5534 5535 5536 5537 5538 5539 5539 5541 5542 5543 5544 5544 5546 5547 5548 5549 5550 5551 5552 5554 5555 5556 5558 5559 5560 5562 5563 5564 5566 5567 5569 5571 5572 5574 5576 5577 5579 5580 5581 5583 5584 5585 5586 5588 5589 5589 5590 5591 5592 5593
5525 5525 5526 5526 5526 5526 5526 5526 5526 5526 5526 5526 5526 5527 5527 5528 5529 5530 5531 5531 5532 5533 5534 5535 5536 5537 5538 5539 5539 5540 5542 5543 5544 5545 5546 5547 5548 5549 5550 5552 5553 5554 5555 5556 5558 5559 5560 5562 5563 5564 5566 5568 5569 5570 5572 5574 5575 5576 5578 5579 5580 5581 5582 5583 5584 5585 5586 5587 5588
5522 5523 5523 5524 5524 5524 5524 5524 5524 5524 5523 5524 5524 5524 5525 5526 5527 5528 5528 5529 5530 5530 5531 5532 5533 5534 5535 5535 5537 5538 5539 5539 5540 5542 5543 5544 5545 5546 5547 5549 5549 5550 5552 5553 5554 5555 5556 5558 5559 5560 5562 5563 5564 5566 5567 5568 5570 5571 5573 5574 5575 5576 5577 5578 5579 5581 5582 5583 5584
5520 5520 5521 5521 5521 5522 5522 5521 5521 5521 5521 5521 5522 5522 5523 5524 5524 5525 5526 5526 5527 5528 5529 5529 5530 5531 5532 5533 5534 5534 5535 5536 5538 5539 5539 5540 5542 5543 5544 5545 5546 5547 5548 5549 5550 5551 5552 5554 5555 5556 5557 5559 5560 5561 5563 5564 5565 5566 5568 5569 5570 5571 5572 5573 5575 5576 5577 5578 5579
5518 5518 5519 5519 5519 5519 5519 5519 5519 5519 5519 5519 5519 5520 5520 5521 5522 5523 5523 5524 5525 5525 5526 5527 5528 5529 5529 5530 5531 5532 5533 5534 5534 5535 5536 5537 5538 5539 5540 5542 5542 5543 5544 5546 5547 5548 5549 5550 5551 5552 5553 5555 5556 5557 5558 5559 5561 5562 5563 5564 5565 5566 5567 5569 5570 5571 5573 5574 5575
5515 5516 5516 5516 5517 5517 5517 5517 5517 5517 5517 5517 5517 5518 5518 5519 5520 5520 5521 5521 5522 5523 5524 5524 5525 5526 5527 5527 5528 5529 5530 5531 5531 5532 5533 5534 5535 5536 5537 5538 5539 5540 5541 5542 5543 5544 5545 5546 5547 5548 5549 5551 5552 5553 5554 5555 5556 5557 5558 5559 5560 5561 5563 5564 5565 5566 5568 5569 5570
5513 5513 5514 5514 5514 5515 5515 5515 5514 5514 5514 5514 5515 5515 5516 5517 5517 5518 5519 5519 5520 5520 5521 5522 5523 5523 5524 5524 5525 5526 5527 5528 5529 5529 5530 5531 5532 5533 5534 5534 5535 5536 5537 5538 5539 5540 5541 5542 5543 5544 5545 5547 5548 5549 5550 5551 5552 5553 5554 5555 5556 5557 5558 5559 5560 5562 5563 5564 5566
5510 5511 5511 5512 5512 5512 5513 5513 5512 5512 5512 5512 5513 5513 5514 5514 5515 5516 5516 5517 5518 5518 5519 5519 5520 5521 5521 5522 5523 5524 5524 5525 5526 5527 5527 5528 5529 5529 5530 5531 5531 5532 5533 5534 5535 5536 5537 5538 5539 5540 5541 5543 5544 5545 5546 5547 5548 5549 5550 5551 5552 5553 5554 5555 5556 5557 5558 5560 5561
5508 5509 5509 5509 5510 5510 5510 5510 5510 5510 5510 5510 5511 5511 5512 5512 5513 5514 5514 5515 5515 5516 5517 5517 5518 5518 5519 5520 5520 5521 5522 5522 5523 5524 5524 5525 5525 5526 5527 5527 5528 5529 5529 5530 5531 5532 5533 5534 5535 5536 5538 5539 5540 5541 5542 5543 5544 5545 5546 5547 5548 5549 5549 5551 5552 5553 5554 5555 5557
5506 5506 5507 5507 5508 5508 5508 5508 5508 5508 5508 5508 5509 5509 5509 5510 5511 5511 5512 5513 5513 5514 5514 5515 5515 5516 5517 5517 5518 5519 5519 5520 5520 5521 5521 5522 5522 5523 5524 5524 5524 5525 5526 5527 5528 5528 5529 5530 5531 5533 5534 5535 5536 5537 5538 5539 5540 5541 5542 5543 5544 5545 5546 5547 5548 5549 5550 5551 5553
5503 5504 5504 5505 5505 5506 5506 5506 5506 5506 5506 5506 5506 5507 5507 5508 5509 5509 5509 5510 5511 5512 5512 5513 5513 5514 5514 5515 5515 5516 5517 5517 5518 5518 5519 5519 5519 5520 5520 5521 5521 5522 5523 5523 5524 5525 5526 5527 5528 5529 5530 5531 5532 5533 5534 5535 5537 5538 5539 5539 5540 5541 5542 5543 5544 5545 5546 5547 5549
5501 5502 5502 5503 5503 5504 5504 5504 5504 5504 5504 5504 5504 5505 5505 5506 5506 5507 5507 5508 5509 5509 5510 5510 5511 5512 5512 5513 5513 5514 5514 5515 5515 5516 5516 5517 5517 5517 5518 5518 5519 5519 5520 5520 5521 5522 5523 5524 5524 5525 5527 5528 5529 5530 5531 5532 5533 5534 5535 5536 5537 5538 5539 5539 5540 5541 5543 5544 5545
5499 5499 5500 5500 5501 5501 5501 5501 5502 5502 5502 5502 5502 5503 5503 5504 5504 5504 5505 5506 5506 5507 5507 5508 5509 5509 5510 5510 5511 5511 5512 5513 5513 5514 5514 5514 5515 5515 5515 5516 5516 5517 5517 5518 5519 5519 5520 5521 5522 5523 5524 5524 5525 5527 5528 5529 5530 5531 5531 5532 5534 5534 5535 5536 5537 5538 5539 5540 5541